COSMOS 1275 DEB, 12782

Orbit data source: Space-Track

COSMOS 1275 DEB, 12782 is space debris in LEO originally from a launch on Thu, 04 Jun 1981 UTC launched from the Plesetsk Missile And Space Complex (PKMTR). Debris objects in space refer to the collection of defunct objects orbiting the Earth. Examples of debris include non-operational satellites, rocket bodies, and fragments generated from explosions, collisions, or faulty payload assembly.

Loading next visibility...
Identifier
12782, 1981-053DY
Orbit
LEO
Country
Flag of CISCIS
Related business
Manufacturer
Unknown
Mission
Spacecraft
Bus & Motor
Unknown
Mass
Unknown
Launch date (UTC)
1981-06-04 (45 years ago)
Launch vehicle
Unknown
Launch site
Plesetsk Missile And Space Complex (PKMTR)
Object type
Payload
Rocket body
Debris
Shape & HBR
Unknown shape, 0.1 m
Radar Cross Section
Small (<0.1 m²)

Expand to show TLE details & history
Last TLE update: 11 hours ago

TLE from 11 hours ago
0 COSMOS 1275 DEB
1 12782U 81053DY  26119.57318403  .00000486  00000-0  49031-3 0  9995
2 12782  82.9973 143.0585 0075229   4.6945 121.8770 13.74249552226625
Epoch: 2026-04-29T13:45Z
TLE epoch observation values (Epoch: 2026-04-29T13:45:23.100Z)
Latitude
52.2394°
Longitude
-109.89689°
Altitude
1,022.377 km
Speed
7.331 km/s
True Right ascension
20h 55m 55s
True Declination
52° 04' 43"
Sunlit
Object was in daylight at epoch
Visualization orbit readout
Latitude
Unknown
Longitude
Unknown
Altitude
Unknown
Speed
Unknown
Apparent Right ascension
Unknown
Apparent Declination
Unknown
Sunlit
N/A
Visualization observer readout
Local Sidereal Time
07:47:54
Azimuth
Unknown
Elevation
Unknown
Doppler factor
Unknown
Orbital elements
Apogee altitude
1,036.867 km
Perigee altitude
926.136 km
Semi-major axis
7,359.638 km
Eccentricity
0.00752
Inclination
82.9973°
RAAN
143.0585°
Arg. of periapsis
4.6945°
True anomaly
122.60541°
Mean anomaly
121.877°
Eccentric anomaly
122.24157°
Mean motion
3.43762 °/min
Orbital period
104.72 mins
BSTAR
0.00049031
Loading maneuver chart data...
Computing Atmospheric mass density...
Loading historical data...
Loading historical data...
Loading historical data...
Loading historical data...
Loading historical data...
Loading historical data...
Loading historical data...

Documentation

Showing up to 5 results
|